CAPE
20 22 20 37 18 20 7 47 93 126 83 94 65 25 45 6 0 3 0 5 1 1 0 6 0 0 0 6 4 0 0 0 0 0 0 0 0 0 0 0 0 0 0 0 0 0 0 0 0 25 15 0 0 0
8 5 11 17 30 17 12 18 78 78 91 76 52 34 9 6 7 6 30 14 5 2 7 4 2 0 0 0 0 0 0 0 0 0 0 0 0 0 0 0 0 0 9 5 0 0 13 0 0 0 0 0 0 0
3 3 6 13 27 32 17 24 17 52 86 41 57 32 25 7 37 2 0 0 0 9 5 0 3 0 0 0 0 0 0 0 0 0 0 0 0 0 0 0 0 0 0 0 0 0 0 16 0 0 0 0 0 0
6 2 3 9 23 23 38 23 1 8 53 57 10 24 4 15 14 1 0 0 0 0 0 0 0 0 0 0 0 0 0 0 0 0 0 0 0 0 0 0 0 0 0 0 0 0 36 0 0 0 0 0 0 0
6 2 3 7 17 23 30 36 7 5 20 13 17 31 4 14 2 0 0 6 1 0 0 0 0 0 0 0 0 0 0 0 0 0 0 0 0 0 0 0 0 0 0 0 0 0 0 0 0 0 0 0 0 0
4 3 4 7 5 21 9 38 19 9 4 8 6 4 4 0 0 0 6 0 0 0 0 0 0 0 0 0 0 0 0 0 0 0 0 0 0 0 0 0 0 0 0 0 0 0 0 0 0 0 0 0 0 0
9 4 4 9 9 16 10 36 21 0 21 10 12 17 5 0 0 15 0 0 0 0 0 0 0 0 0 0 0 0 0 0 0 0 0 0 0 0 0 0 0 0 0 0 0 0 0 0 0 0 0 0 0 0
11 1 6 6 27 13 20 34 6 9 21 17 33 22 14 14 0 0 0 0 0 1 0 0 0 0 0 0 0 0 0 0 0 0 0 0 0 0 0 0 0 0 0 0 0 0 0 0 0 0 0 0 0 0
8 3 14 21 13 20 42 35 1 15 19 35 53 69 6 0 0 0 0 0 0 6 12 0 0 0 0 2 0 0 0 0 0 0 0 0 0 0 0 0 0 0 0 0 0 0 0 0 0 0 0 0 0 0
8 8 15 9 10 34 3 0 40 36 39 42 2 0 0 0 0 0 0 0 0 0 0 10 0 0 0 0 0 0 0 0 0 0 0 0 0 0 0 0 0 0 0 3 3 0 0 0 0 0 0 0 0 0
7 11 14 13 37 36 0 4 24 42 19 1 2 1 0 0 1 0 0 0 0 0 0 0 0 0 0 0 0 0 0 0 0 0 0 0 0 0 0 0 0 0 0 0 0 0 0 0 0 0 0 0 0 0
5 11 8 8 20 30 10 14 17 1 2 0 0 0 0 6 0 0 0 0 0 0 0 0 0 0 0 0 0 0 0 0 0 0 11 1 0 1 22 21 9 0 0 0 0 0 0 0 0 0 0 0 0 0
1 7 7 10 5 62 34 19 9 1 12 0 0 0 1 0 0 0 0 0 0 0 0 0 0 0 0 0 0 0 0 0 0 0 0 0 0 0 0 1 2 0 0 0 0 0 0 0 0 0 0 0 0 0
2 8 7 5 4 16 10 25 22 23 8 0 0 0 0 0 0 0 0 0 0 0 0 0 0 0 0 0 0 0 0 0 0 0 0 0 0 0 11 10 54 2 0 0 0 0 0 0 0 0 0 0 0 0
4 5 3 5 18 23 39 35 24 6 4 2 1 0 0 0 0 0 0 0 0 0 0 0 0 0 0 0 0 0 0 0 0 0 0 0 0 0 0 0 6 0 0 0 0 0 0 0 0 0 0 0 0 0
8 4 4 7 30 27 25 35 3 7 1 0 0 0 0 0 0 0 0 0 0 0 0 0 0 0 0 0 0 0 0 0 0 0 0 0 0 0 0 0 0 0 0 0 0 0 0 0 0 0 0 0 0 0
8 2 1 12 24 29 15 2 4 2 0 0 0 0 0 0 0 0 0 0 0 0 0 0 0 0 0 0 0 0 0 0 0 0 0 0 4 6 1 0 0 0 0 0 0 0 0 0 0 0 0 0 0 0
3 2 24 21 6 6 2 3 1 1 0 0 0 0 0 0 0 0 0 0 0 0 0 0 0 0 0 0 0 0 0 0 0 0 0 0 0 8 20 3 4 0 0 0 0 0 0 0 0 0 0 0 0 0
11 14 19 12 1 0 0 0 2 4 2 0 0 0 0 0 0 0 0 0 0 0 0 0 0 0 0 0 0 0 0 0 0 0 0 0 0 0 22 20 9 5 0 0 0 0 0 0 0 0 0 0 0 0
5 13 14 18 0 0 0 0 3 0 0 0 0 0 1 0 0 0 0 0 0 0 0 0 0 0 0 0 0 0 0 0 0 0 0 0 0 0 0 5 0 0 0 0 0 0 0 0 0 0 0 0 0 0
7 9 10 0 2 3 0 0 0 0 0 0 0 0 9 1 0 0 0 0 0 0 0 0 0 0 0 0 0 0 0 0 0 0 0 0 0 0 0 0 0 14 4 0 0 0 0 0 0 0 0 0 0 0
0 4 0 4 0 0 0 0 0 1 0 0 0 0 0 1 2 1 0 0 0 0 0 0 0 0 0 0 0 0 0 0 0 0 0 0 0 0 0 0 0 0 0 0 0 0 0 0 0 0 0 0 0 0
8 2 3 0 1 1 0 0 0 2 0 1 0 0 0 0 0 0 2 0 0 0 0 0 0 0 0 0 0 0 0 0 0 0 0 0 0 0 0 0 0 0 0 0 0 0 0 0 0 0 0 0 0 0
0 0 2 3 4 0 0 1 0 0 1 4 1 0 0 0 0 0 0 0 0 0 0 0 0 0 0 0 0 0 0 0 0 0 0 0 0 0 0 0 0 0 0 0 0 0 0 0 0 0 0 0 0 0
0 0 0 3 0 0 0 1 0 0 0 0 0 0 0 0 0 0 0 0 0 0 0 0 0 0 0 0 0 0 0 0 0 0 0 0 0 0 0 0 0 0 0 0 0 0 0 0 0 0 0 0 0 0
0 0 0 0 0 0 0 0 0 0 0 0 0 0 0 0 0 0 0 0 0 0 0 0 0 0 0 0 0 0 0 0 0 0 0 0 0 0 0 0 0 0 0 0 0 0 0 0 0 0 0 0 0 0
0 0 0 0 0 0 0 0 0 0 0 0 0 0 0 0 0 0 0 0 0 0 0 0 0 0 0 0 0 0 0 0 0 0 0 0 0 0 0 0 0 0 0 0 0 0 0 0 0 0 0 0 0 0
0 0 0 0 0 0 0 0 0 0 0 0 0 0 0 0 0 0 0 0 0 0 0 0 0 0 0 0 0 0 0 0 0 0 0 0 0 0 0 0 0 0 0 0 0 0 0 0 0 0 0 0 0 0
0 0 0 0 0 0 0 0 0 0 0 0 0 0 0 0 0 0 0 0 0 0 0 0 0 0 0 0 0 0 0 0 0 0 0 0 0 0 0 0 0 0 0 0 0 0 0 0 0 0 2 2 2 0
1 0 0 0 0 0 0 0 0 0 0 0 0 0 0 0 0 0 0 0 0 0 0 0 0 0 0 0 0 0 0 0 0 1 1 1 0 0 0 0 0 0 0 0 1 1 0 0 0 0 0 2 0 0
0 0 0 0 0 1 0 0 0 0 0 0 0 0 0 0 0 0 0 0 0 0 0 0 0 0 0 0 0 1 1 1 3 0 0 0 0 0 0 0 0 1 1 0 0 0 0 0 1 1 0 0 0 0
2 1 0 0 0 0 0 0 0 0 1 0 0 0 0 0 0 0 0 0 0 0 0 0 0 0 0 0 1 1 0 1 1 0 0 0 1 0 0 0 0 0 0 0 0 0 0 1 2 2 0 0 0 0
1 0 0 0 0 0 0 0 0 0 0 0 0 0 0 0 0 0 0 0 0 0 0 1 0 0 0 0 0 0 0 0 0 0 0 0 0 0 0 1 1 1 1 1 0 0 0 0 0 0 0 0 0 0
CIN
0 0 0 0 0 0 -1 -2 -2 -1 -5 -4 -1 -1 -3 -1 0 -9 0 -19 -5 -1 0 -1 0 0 -3 -4 0 0 0 0 0 0 0 0 0 0 0 0 0 0 0 0 0 0 0 0 0 -62 -91 0 0 0
-1 0 0 0 0 0 -1 -1 -1 -4 -4 -3 -1 -4 0 -10 -2 -11 -4 -16 -14 -3 -2 -4 -3 0 0 0 -1 0 0 0 0 0 0 0 0 0 0 0 0 0 -12 -22 0 0 -65 0 0 0 0 0 0 0
0 0 0 0 -1 0 0 0 -1 -1 -4 -3 -3 -16 -3 0 -1 -1 0 0 -5 -1 0 0 0 0 0 0 0 0 0 0 0 0 0 0 0 0 0 0 0 0 0 0 0 -30 0 -50 0 -8 0 0 0 0
0 0 0 0 -2 0 0 0 0 0 -4 -3 -8 -1 0 -7 -14 -7 0 0 -12 0 0 0 0 0 0 0 0 0 0 0 0 0 0 0 0 0 0 0 0 0 0 0 0 0 -34 0 0 0 0 0 0 0
0 0 0 0 0 0 0 0 0 -1 -2 -4 -5 -2 0 -12 -27 0 0 -32 -48 0 -3 0 0 0 0 0 0 0 0 0 0 0 0 0 0 0 0 0 0 0 0 0 0 0 0 0 0 0 0 0 0 0
0 0 0 0 0 0 0 0 0 -1 -1 -18 -6 0 -7 -1 0 0 -15 0 0 0 0 0 0 0 0 0 0 0 0 0 0 0 0 0 0 0 0 0 0 0 0 0 0 0 0 0 0 0 0 0 0 0
0 0 0 0 0 -1 0 0 -1 0 0 0 0 0 -7 -2 -3 -9 0 0 0 0 0 0 0 0 0 0 0 0 0 0 0 0 0 0 0 0 0 0 0 0 0 0 0 0 0 0 0 0 0 0 0 0
0 0 0 0 0 0 -1 -1 -5 0 0 0 0 -3 -7 -8 0 0 0 0 0 -53 0 0 0 0 0 0 0 0 0 0 0 0 0 0 0 0 0 0 0 0 0 0 0 0 0 0 0 0 0 0 0 0
0 0 0 0 0 0 0 -1 -3 0 0 0 0 -8 -3 -14 0 0 0 0 0 -89 -38 0 0 0 0 -5 0 0 0 0 0 0 0 0 0 0 0 0 0 0 0 0 0 0 0 0 0 0 0 0 0 0
0 0 0 0 0 -1 0 0 0 0 0 0 -7 0 0 0 0 0 -1 0 0 -9 -1 -77 0 0 0 0 0 0 0 0 0 0 0 0 0 0 0 0 0 0 0 -64 -54 0 0 0 0 0 0 0 0 0
0 0 0 0 -1 -3 0 0 0 0 0 0 0 0 0 -32 -15 0 0 0 0 0 0 0 0 0 0 0 0 0 0 0 0 0 0 0 0 0 0 0 0 0 0 0 0 0 0 0 0 0 0 0 0 0
0 0 0 0 0 -12 0 0 0 -3 -1 0 0 0 -3 -67 0 0 0 0 0 0 0 0 0 0 0 0 0 0 0 0 0 0 -3 -5 0 -9 -14 -20 -36 0 0 0 0 0 0 0 0 0 0 0 0 0
0 -1 0 0 0 -5 -1 0 -1 -12 -15 0 0 0 -7 0 0 0 0 0 0 0 0 0 0 0 0 0 0 0 0 0 0 0 0 0 0 0 0 -98 -10 0 0 0 0 0 0 0 0 0 0 0 0 0
0 0 0 0 -1 -5 -1 0 -2 -6 -14 0 0 0 0 0 0 0 0 0 0 0 0 0 0 0 0 0 0 0 0 0 0 0 0 0 0 0 -59 -86 -84 -12 0 0 0 0 0 0 0 0 0 0 0 0
0 0 0 0 -1 0 0 0 -3 -15 -1 -1 -2 0 0 0 0 0 0 0 0 0 0 0 0 0 0 0 0 0 0 0 0 0 0 0 0 0 0 0 -71 0 0 0 0 0 0 0 0 0 0 0 0 0
0 0 0 0 0 0 0 -1 -2 -1 -3 0 0 0 0 0 0 0 0 0 0 0 0 0 0 0 0 0 0 0 0 0 0 0 0 0 0 0 0 0 0 0 0 0 0 0 0 0 0 0 0 0 0 0
0 0 0 -1 0 0 0 -1 -2 0 0 0 0 0 0 0 0 0 0 0 0 0 0 0 0 0 0 0 0 0 0 0 0 0 0 0 -34 -35 -33 0 -9 0 0 0 0 0 0 0 0 0 0 0 0 0
0 -1 0 0 0 0 0 0 0 0 0 0 0 0 0 0 0 0 0 0 0 0 0 0 0 0 0 0 0 0 0 0 0 0 0 0 0 -36 -34 -72 -68 -9 0 0 0 0 0 0 0 0 0 0 0 0
0 0 0 0 -3 0 0 0 0 0 0 0 0 0 0 0 0 0 0 0 0 0 0 0 0 0 0 0 0 0 0 0 0 0 0 0 0 0 -36 -41 -73 -41 0 0 0 0 0 0 0 0 0 0 0 0
0 0 0 -1 0 0 0 0 0 0 0 0 0 -12 -20 -5 0 0 0 0 0 0 0 0 0 0 0 0 0 0 0 0 0 0 0 0 0 -2 0 -17 0 0 0 0 0 0 0 0 0 0 0 0 0 0
0 0 0 0 -1 -2 0 0 0 0 0 0 0 0 -3 -24 -20 0 0 0 0 0 0 0 0 0 0 0 0 0 0 0 0 0 0 0 0 0 0 0 0 -18 -29 0 0 0 0 0 0 0 0 0 0 0
0 0 0 -1 0 0 0 0 0 -1 -1 0 0 -1 -3 -12 -4 -5 -1 -1 0 0 0 0 0 0 0 0 0 0 0 0 0 0 0 0 0 0 0 0 0 0 0 0 0 0 0 0 0 0 0 0 0 0
0 0 0 0 0 0 0 0 0 0 0 0 0 -1 0 0 0 -6 -2 0 0 0 0 0 0 0 0 0 0 0 0 0 0 0 0 0 0 0 0 0 0 0 0 0 0 0 0 0 0 0 0 0 0 0
0 0 0 0 0 0 0 -1 0 -2 0 0 0 0 0 0 0 0 0 0 0 0 0 0 0 0 0 0 0 0 0 0 0 0 0 0 0 0 0 0 0 0 0 0 0 0 0 0 0 0 0 0 0 0
0 0 0 0 0 0 0 -1 0 0 0 0 0 0 0 0 0 0 0 0 0 0 0 0 0 0 0 0 0 0 0 0 0 0 0 0 0 0 -3 0 0 0 0 0 0 0 0 0 0 0 0 0 0 0
0 0 0 0 -1 0 0 0 0 0 0 0 0 0 0 0 0 0 0 0 0 0 0 0 0 0 0 0 0 0 0 0 0 0 0 0 0 0 0 0 0 0 0 0 0 0 0 0 0 0 0 0 0 0
0 0 0 0 0 0 0 0 0 0 0 0 0 0 0 0 0 0 0 0 0 0 0 0 0 0 0 0 0 0 0 0 0 0 0 0 0 0 0 0 0 0 0 0 0 0 0 0 0 0 0 0 0 -1
0 0 0 0 0 0 0 0 0 0 0 0 0 0 0 0 0 0 0 0 0 0 0 0 0 0 0 0 0 0 0 0 0 0 0 0 0 0 0 0 0 0 0 0 0 0 0 0 0 0 0 0 0 0
0 0 0 0 0 0 0 0 0 0 0 0 0 0 0 0 0 0 0 0 0 0 0 0 0 0 0 0 0 0 0 0 0 0 0 0 0 0 0 0 0 0 0 0 0 0 0 0 0 0 0 0 0 0
-2 0 0 0 0 0 0 0 0 0 0 0 0 0 0 0 0 0 0 0 0 0 0 0 0 0 0 0 0 0 0 0 0 0 0 0 0 0 0 0 0 0 0 0 0 0 0 0 0 0 0 0 0 0
0 -3 0 0 0 0 0 0 0 0 0 0 0 0 0 0 0 0 0 0 0 0 0 0 0 0 -1 0 0 0 0 -1 -2 -4 0 0 0 0 0 0 0 0 0 0 0 0 0 0 0 0 0 0 0 0
-8 -3 0 0 0 0 0 0 0 0 0 0 0 0 0 0 0 0 0 0 0 0 0 0 0 0 -2 0 0 0 0 0 0 0 0 0 0 0 0 0 0 0 0 0 0 0 0 0 0 0 -1 0 0 0
-1 0 0 0 0 0 0 0 0 0 0 0 0 0 0 0 0 0 0 0 0 0 0 0 -1 0 0 0 0 0 0 0 0 0 0 0 0 0 0 0 0 0 0 0 0 0 0 0 0 0 0 0 0 0
Wind_Speed
18 19 20 18 15 16 14 15 9 12 13 15 15 12 25 26 27 14 4 4 3 2 3 4 7 7 3 1 3 5 6 5 4 4 4 3 2 4 3 4 3 7 6 5 3 3 9 9 7 5 3 4 6 5
18 18 19 19 16 15 14 16 12 10 10 14 14 8 25 27 22 16 4 6 5 0 3 4 4 7 5 2 3 3 7 3 4 4 1 2 1 2 2 3 4 3 6 4 6 5 4 5 7 1 0 3 4 4
17 18 19 20 18 17 12 15 13 9 9 11 14 8 24 25 24 20 3 6 6 2 2 4 1 3 10 11 5 5 4 4 5 2 2 1 2 3 2 4 3 4 7 3 6 5 6 8 4 1 4 4 5 5
17 18 19 19 19 19 16 12 13 12 10 15 10 13 26 25 23 21 2 4 2 4 3 2 2 4 5 7 10 6 4 6 4 4 3 2 1 4 1 1 1 1 5 4 2 13 6 11 10 8 8 6 7 5
16 18 18 19 19 18 18 15 12 14 10 14 15 26 29 25 19 10 5 2 1 4 3 2 4 6 4 5 9 9 8 6 3 4 3 1 2 4 4 3 3 2 2 2 3 2 3 3 4 5 7 7 8 8
17 18 19 19 19 18 18 17 11 6 16 15 31 31 25 17 15 3 3 3 1 3 5 3 2 3 5 7 7 7 5 4 3 3 1 2 2 4 1 3 3 4 7 4 2 5 4 5 6 6 5 6 6 6
16 17 19 19 20 19 20 15 7 4 8 27 29 29 23 17 3 2 5 3 5 3 3 3 3 2 4 3 2 4 5 2 3 1 1 1 2 3 2 4 8 13 8 8 6 6 7 6 6 7 6 6 7 7
13 16 18 19 21 22 20 9 2 12 28 31 25 21 13 12 8 3 3 7 3 1 1 5 2 2 1 3 1 2 2 2 1 1 3 1 2 2 4 4 8 11 12 10 8 6 3 5 10 14 15 16 16 13
15 16 17 19 23 23 8 6 8 12 37 30 25 18 6 5 3 2 1 6 1 4 1 4 6 4 3 1 4 4 3 2 2 1 2 2 3 5 5 6 6 7 5 4 5 8 10 9 9 12 13 15 15 14
14 16 14 21 23 5 8 6 21 30 31 27 10 4 3 4 15 7 4 4 5 3 2 2 4 4 5 3 2 3 1 1 1 5 2 2 5 9 9 10 8 7 6 7 4 5 6 5 6 7 9 9 10 12
14 14 15 20 8 7 22 18 39 35 25 2 3 3 3 10 3 4 2 4 1 1 2 3 4 7 1 5 3 3 4 1 1 4 5 3 4 7 11 14 16 12 9 8 8 6 3 2 3 4 6 8 10 12
14 11 15 19 12 7 27 30 25 6 3 6 7 7 3 2 3 6 3 2 3 6 3 6 5 5 2 3 5 3 2 2 3 3 3 4 5 3 6 8 8 10 9 8 7 6 6 7 7 7 6 8 9 12
12 10 14 16 12 11 31 34 24 12 10 4 6 3 3 1 3 7 8 3 3 5 5 6 5 4 3 4 4 4 4 3 3 3 4 6 4 3 2 5 12 1 7 7 4 3 3 5 5 3 6 7 8 10
10 9 15 14 11 18 31 34 22 16 3 4 4 5 5 4 5 6 6 6 5 7 8 8 4 5 3 4 2 4 4 3 2 2 6 4 2 5 3 3 6 4 5 5 6 6 6 7 7 7 6 6 7 11
10 9 11 13 21 31 24 26 11 3 2 3 3 3 5 5 4 5 6 6 6 9 8 6 5 5 3 4 1 3 1 3 6 6 4 4 3 3 4 2 5 8 8 7 7 7 8 8 7 8 7 8 8 8
9 13 6 15 24 21 27 16 4 2 2 2 4 1 3 4 2 4 7 7 9 10 6 5 4 4 2 4 3 5 4 6 5 4 3 3 5 6 6 6 5 5 7 7 6 6 5 4 5 7 8 7 9 8
10 5 12 22 32 24 12 2 2 4 2 2 2 3 3 4 4 4 9 8 9 6 4 4 5 6 3 2 6 5 6 5 4 4 3 4 4 6 9 7 7 7 7 5 3 2 3 5 4 5 8 12 8 8
3 3 29 36 22 12 2 3 3 2 1 3 1 1 3 2 4 6 4 6 5 3 3 4 4 3 5 6 4 5 3 4 4 4 4 5 6 7 5 8 8 6 6 4 4 5 4 6 7 6 8 9 8 8
4 8 26 22 7 6 3 2 2 3 0 3 2 3 2 2 2 5 5 5 4 4 4 3 2 3 4 4 4 3 1 1 2 3 3 5 7 7 7 7 5 6 6 6 6 5 5 8 7 5 5 5 6 7
4 11 6 14 8 4 4 2 1 3 2 3 3 2 3 2 3 4 4 3 4 4 2 3 5 4 3 2 2 3 3 3 2 3 4 4 5 6 6 5 3 3 4 5 4 4 4 5 4 5 5 5 4 7
4 5 5 7 4 3 3 3 3 2 1 2 3 1 2 3 4 3 2 3 2 3 3 4 3 4 4 3 3 2 3 3 4 5 5 4 5 4 4 5 6 3 3 5 6 6 6 6 6 5 5 5 4 5
1 12 2 4 4 4 3 4 3 4 3 1 3 2 3 2 2 3 3 2 3 5 4 3 3 3 4 5 3 3 5 7 6 5 5 4 4 4 4 5 3 4 5 5 5 6 6 6 5 5 5 5 6 5
10 3 2 3 3 3 1 3 4 3 4 3 2 1 1 1 3 1 2 4 5 4 5 5 8 8 7 6 5 6 5 6 5 5 5 5 5 5 5 5 4 4 5 6 5 6 8 9 8 6 5 5 4 5
6 4 3 3 2 3 1 1 1 3 3 3 3 1 2 3 3 1 4 3 3 3 5 8 4 4 4 6 5 6 6 5 6 5 5 5 5 6 6 6 5 6 6 7 5 6 7 7 6 5 5 7 7 7
5 2 3 4 2 5 4 3 3 2 3 4 4 2 2 2 2 2 3 3 4 7 4 4 4 5 6 6 5 6 6 5 5 6 6 6 6 4 4 5 6 7 5 7 9 9 9 6 6 7 6 7 8 8
5 3 3 5 4 4 4 5 4 5 4 2 2 3 2 3 1 5 3 5 4 4 3 4 4 4 5 5 5 5 6 5 5 5 5 6 6 5 4 6 8 6 5 6 8 9 9 5 6 9 9 10 13 10
4 2 2 3 4 5 4 3 3 4 3 4 3 3 3 2 5 5 3 3 3 3 3 3 4 5 6 6 5 5 5 4 5 5 5 5 5 5 6 8 11 9 3 5 4 4 7 8 9 9 9 9 10 10
2 2 5 2 4 3 4 3 4 5 4 4 5 4 7 7 6 4 4 1 0 2 3 4 5 5 5 5 5 5 5 4 6 5 4 4 2 2 3 4 3 3 2 3 5 6 7 8 9 10 11 11 9 7
1 1 5 5 4 2 2 4 4 3 3 5 5 4 4 3 3 1 3 2 3 3 4 5 4 3 4 4 3 3 3 3 5 10 12 11 9 6 2 2 4 6 7 8 9 8 9 8 7 7 8 7 7 5
2 2 3 2 4 3 1 2 1 2 3 1 1 2 3 3 3 1 2 4 3 3 2 4 6 5 7 7 8 7 3 3 4 6 9 10 7 4 5 7 8 7 5 5 5 5 4 4 5 4 5 4 3 2
3 2 2 2 2 2 2 2 2 1 2 3 2 1 3 4 4 4 3 1 2 2 3 3 5 4 5 5 5 7 7 3 4 6 6 7 8 8 7 6 4 2 3 4 3 3 3 3 2 3 4 4 4 4
2 1 2 2 2 1 1 1 1 1 1 1 2 2 3 3 4 4 2 2 1 2 4 3 4 5 3 4 5 5 8 8 7 6 8 6 6 4 2 2 2 2 3 3 3 3 3 4 2 2 2 6 6 7
2 3 2 4 3 3 2 1 1 1 1 2 2 1 1 2 5 4 0 3 2 1 4 5 5 7 7 7 6 6 7 5 5 5 6 6 5 4 2 2 2 3 4 3 3 4 5 6 5 6 7 7 7 7
Wind_Direction
328 331 331 335 335 340 339 335 293 247 236 218 206 223 198 182 176 200 226 144 94 3 355 338 20 31 340 256 182 175 55 343 32 75 108 216 164 233 239 251 227 170 166 181 127 174 272 335 39 73 168 77 83 57
325 328 330 328 332 331 331 330 317 278 229 198 185 211 176 167 178 184 247 176 135 237 243 36 43 319 32 327 219 62 168 133 170 96 10 131 307 21 60 268 317 217 159 192 161 204 143 68 104 121 248 145 116 104
318 323 325 324 327 331 325 314 325 314 216 188 200 208 171 156 178 190 230 146 167 178 276 115 111 13 5 358 351 103 26 19 57 129 78 284 169 107 195 246 322 322 29 101 106 230 203 158 136 243 247 99 79 50
309 316 320 319 322 325 326 310 309 304 239 210 203 223 164 169 190 189 247 180 198 156 156 129 250 52 3 359 30 44 110 37 78 60 75 45 357 32 284 251 105 296 23 29 326 31 48 38 43 20 11 25 34 22
303 309 314 315 317 319 323 314 296 295 255 262 242 174 161 175 177 185 247 178 146 133 141 136 89 31 27 51 55 34 48 51 45 46 54 246 301 33 329 16 280 46 50 67 244 355 144 299 353 349 358 359 9 30
300 305 311 313 314 318 316 313 290 301 298 187 153 146 149 177 177 177 40 309 263 81 95 108 211 79 29 45 73 71 57 47 65 92 192 320 326 94 322 247 240 276 1 45 341 349 22 342 358 24 11 347 336 332
294 303 311 313 315 311 307 301 279 321 242 128 127 141 166 184 172 138 174 230 127 79 99 101 87 118 132 109 18 51 30 59 94 56 40 269 325 71 223 212 320 308 299 303 316 2 346 349 309 306 302 291 280 271
296 306 313 317 315 308 300 268 210 304 145 135 144 152 141 122 138 57 326 29 58 149 135 104 94 74 195 140 86 124 92 41 25 200 349 188 307 182 260 227 224 247 263 273 275 275 298 345 15 16 7 4 354 348
298 307 319 319 311 306 271 222 128 156 129 136 142 110 65 21 93 195 332 336 285 115 126 108 144 170 143 179 107 38 56 54 263 127 229 87 249 226 227 245 240 240 229 263 57 52 40 34 17 6 357 351 341 332
297 309 332 315 310 293 63 320 170 135 125 121 102 73 108 230 123 111 23 28 12 337 19 137 115 139 137 147 93 90 78 219 186 231 127 173 254 260 265 270 275 282 281 101 72 29 23 15 9 350 339 329 318 316
297 315 324 315 321 134 94 78 127 132 123 85 118 122 107 123 86 61 111 104 239 326 227 234 130 129 238 110 144 166 182 264 56 266 151 237 255 246 245 236 236 233 124 113 118 116 129 238 287 293 302 306 305 300
297 317 318 319 317 263 147 140 142 122 147 175 110 92 99 164 77 105 169 178 169 197 200 123 135 123 44 70 86 3 112 51 250 332 98 258 249 337 8 12 62 110 125 116 126 163 209 226 235 229 247 269 275 279
298 310 314 316 306 195 154 157 162 169 148 68 52 77 127 200 89 158 172 196 180 158 171 118 105 115 37 58 77 79 75 238 337 32 239 229 282 26 30 28 5 320 126 127 185 232 282 280 288 247 258 267 277 295
292 301 306 317 270 177 150 151 172 159 99 104 146 150 194 178 212 199 169 156 179 126 125 114 94 120 111 82 147 111 205 105 332 268 234 251 320 329 69 81 163 265 155 169 213 234 244 257 259 260 245 260 284 288
290 287 298 305 147 139 146 154 54 47 101 128 173 182 195 203 193 184 146 125 115 125 106 93 52 78 50 77 323 150 156 242 214 220 226 231 278 294 175 206 198 209 233 220 219 226 241 249 257 272 267 252 258 264
314 307 219 173 166 149 160 152 34 87 35 12 225 188 237 117 226 130 127 126 129 119 103 82 114 97 146 138 128 211 197 213 238 204 219 228 230 240 229 200 240 274 232 213 214 223 240 225 236 258 279 267 263 253
317 225 213 174 160 156 140 77 69 47 59 286 280 274 138 93 132 103 127 131 128 111 122 110 107 175 128 165 191 186 210 216 229 280 276 268 280 255 220 224 225 241 238 202 206 192 240 259 273 291 285 288 266 259
285 148 143 128 122 113 48 29 98 123 92 270 88 338 56 70 97 111 114 127 118 110 97 162 143 167 173 186 226 243 222 231 228 226 243 266 276 283 273 222 240 237 226 216 207 225 240 267 262 260 264 274 284 274
142 116 127 123 127 111 93 56 346 83 49 288 347 63 82 58 68 93 87 101 116 100 81 53 136 202 213 207 202 234 249 188 253 274 272 282 277 279 291 303 255 237 239 229 226 218 220 230 224 239 259 281 284 293
2 132 113 57 46 72 87 75 279 62 61 294 4 21 148 144 120 101 109 107 114 94 84 190 211 218 193 218 158 169 198 223 221 292 285 281 279 280 278 284 268 278 296 292 269 255 271 264 248 248 244 258 275 287
92 208 34 25 36 64 115 126 63 78 17 44 302 259 115 83 91 102 125 162 89 170 210 214 226 269 285 268 262 248 259 245 240 215 238 268 271 265 268 269 266 248 233 227 228 249 239 234 236 230 226 242 256 249
97 115 89 35 50 13 53 8 119 148 103 181 1 351 72 65 111 159 150 182 219 218 190 207 252 245 270 273 268 259 262 266 260 257 270 262 282 281 272 249 252 252 246 238 237 243 244 237 234 231 218 233 241 229
117 102 69 79 85 46 17 320 88 116 119 151 316 81 92 119 193 124 220 206 227 211 207 214 234 238 240 256 267 272 248 252 260 249 251 244 248 254 261 266 244 236 259 259 230 244 254 251 243 229 222 237 231 237
81 74 107 105 107 115 162 70 97 96 103 154 168 244 178 181 163 154 235 223 215 219 233 241 239 265 289 281 261 249 246 219 238 247 227 225 244 257 234 242 242 240 239 261 250 253 257 256 236 227 216 230 243 254
106 135 145 119 162 126 126 133 125 106 128 197 157 188 220 77 88 262 236 259 217 231 234 230 217 216 229 245 252 256 254 217 228 234 240 214 232 256 258 240 240 236 233 256 265 259 256 246 240 235 231 223 230 243
96 180 176 146 164 136 147 127 149 166 140 147 169 171 86 107 144 249 246 229 224 223 222 199 213 250 259 232 247 264 256 243 235 240 250 219 220 220 237 257 279 274 242 245 265 266 263 253 253 258 258 241 232 234
113 146 192 204 137 120 88 91 122 105 151 164 184 98 97 169 233 245 264 248 210 229 208 210 211 227 239 250 251 253 255 250 225 225 237 236 232 223 223 258 275 279 251 253 254 241 264 273 275 274 272 268 260 256
109 93 135 185 84 94 119 110 148 175 182 160 116 172 180 197 230 237 201 268 72 309 290 269 250 242 248 254 255 265 271 265 277 282 293 284 253 258 263 265 272 319 265 267 274 269 260 257 253 257 256 257 259 234
29 88 69 28 38 65 177 164 192 207 177 142 160 196 225 232 228 240 291 301 300 275 265 270 286 317 321 325 334 338 346 360 336 307 296 292 298 288 276 301 296 296 289 283 278 267 273 272 273 271 271 263 260 238
136 122 96 143 150 187 134 18 118 349 346 112 181 341 324 299 255 258 303 288 278 277 293 302 305 316 308 312 309 302 280 265 242 262 276 281 289 306 293 287 286 284 279 284 287 290 273 289 284 278 273 259 227 169
133 108 115 132 123 67 57 5 320 290 30 32 25 189 253 306 313 278 255 36 79 18 344 332 329 316 297 291 292 302 305 291 276 284 288 294 292 289 288 289 295 314 299 299 308 314 318 311 318 352 15 36 58 76
75 43 110 103 126 106 142 5 4 136 231 304 258 272 314 311 280 280 218 127 1 14 333 312 303 298 295 301 291 284 278 288 294 292 293 295 297 303 2 344 334 339 348 355 357 352 344 352 17 8 85 80 69 66
112 115 117 131 137 179 152 227 231 142 251 267 264 262 258 233 252 266 344 90 106 334 311 296 289 302 290 279 279 299 315 305 327 5 5 17 26 26 16 3 358 8 20 21 8 10 25 45 53 65 77 83 82 78